Regional Weather Roundup
Issued by NWS

Home | Current Version | Previous Version | Graphics & Text | Print | Product List | Glossary On
Versions: 1 2 3 4 5 6 7 8 9 10 11 12 13 14 15 16 17 18 19 20 21 22 23 24 25 26 27 28 29 30 31 32 33 34 35 36 37 38 39 40 41 42 43 44 45 46 47 48 49 50
000
ASUS43 KLMK 012302
RWRKY
KENTUCKY REGIONAL WEATHER ROUNDUP
NATIONAL WEATHER SERVICE LOUISVILLE KY
600 PM EST THU DEC 01 2016

NOTE "FAIR" INDICATES FEW OR NO CLOUDS BELOW 12,000 FEET
WITH NO SIGNIFICANT WEATHER AND/OR OBSTRUCTIONS TO VISIBILITY.

KYZ001>023-026-027-061>063-070>075-020000-
WESTERN AND SOUTH CENTRAL KENTUCKY

CITY           SKY/WX    TMP DP  RH WIND       PRES   REMARKS
PADUCAH        CLEAR     43  26  51 SW3       30.06R
HENDERSON      CLEAR     39  27  60 NW6       30.04S WCI  35
OWENSBORO      CLEAR     41  30  65 NW6       30.05R
HOPKINSVILLE   CLEAR     44  26  48 W6        30.05R
BOWLING GREEN  CLEAR     46  27  47 W3        30.04S
GLASGOW        NOT AVBL
$$

KYZ024-025-028>034-038-045-046-053-020000-
NORTH CENTRAL KENTUCKY

CITY           SKY/WX    TMP DP  RH WIND       PRES   REMARKS
LOUISVILLE/SDF PTCLDY    44  25  47 W12       30.02R
LOUISVILLE/LOU CLEAR     44  27  51 SW7       30.03R
FORT KNOX      CLEAR     40  27  60 W5        30.01R
$$

KYZ035>037-039>044-047>052-055>060-089>105-020000-
NORTHEAST KENTUCKY

CITY           SKY/WX    TMP DP  RH WIND       PRES   REMARKS
LEXINGTON      CLEAR     41  27  57 SW7       30.01R
COVINGTON      PTCLDY    37  28  70 W7        29.99R WCI  32
FRANKFORT      CLEAR     43  26  51 W5        30.00R
$$

KYZ054-064>069-076>088-106>120-020000-
SOUTHEAST KENTUCKY

CITY           SKY/WX    TMP DP  RH WIND       PRES   REMARKS
JACKSON        CLEAR     41  28  60 VRB3      29.99R
LONDON         CLEAR     42  27  55 W5        30.01R
SOMERSET       CLEAR     41  28  60 W5        30.04S
MIDDLESBORO    CLEAR     42  32  68 CALM      30.02R
MONTICELLO     CLEAR     38  28  67 W13       30.05R WCI  30
$$





USA.gov is the U.S. government's official web portal to all federal, state and local government web resources and services.